Regional Weather Roundup
Issued by NWS

Home | Current Version | Previous Version | Text Only | Print | Product List | Glossary On
Versions: 1 2 3 4 5 6 7 8 9 10 11 12 13 14 15 16 17 18 19 20 21 22 23 24 25 26 27 28 29 30 31 32 33 34 35 36 37 38 39 40 41 42 43 44 45 46 47 48 49 50
000
ASUS43 KLSX 031007
RWRMO

WEATHER SUMMARY FOR MISSOURI
NATIONAL WEATHER SERVICE SPRINGFIELD MO
500 AM CDT MON AUG 03 2015

NOTE: "FAIR" INDICATES FEW OR NO CLOUDS BELOW 12,000 FEET WITH NO
       SIGNIFICANT WEATHER AND/OR OBSTRUCTIONS TO VISIBILITY.
       CURRENT SKY AND/OR WEATHER CONDITIONS ARE NOT AVAILABLE FOR
       CHILLICOTHE AND FARMINGTON.

MOZ001>031-035>038-043-044-053-054-031100-
...NORTHERN AND WESTERN MISSOURI...

CITY           SKY/WX    TMP DP  RH WIND       PRES   REMARKS
KANSAS CTY INT PTCLDY    72  64  76 E7        29.92R
KANSAS C DTWN  CLEAR     74  66  76 NE7       29.91R
LEE`S SUMMIT   CLEAR     72  67  84 CALM      29.92S
ST JOSEPH      PTCLDY    71  63  75 S5        29.89F
CHILLICOTHE      N/A     72  65  78 N7        29.88R
KIRKSVILLE     PTCLDY    67  60  78 N7        29.89R

$$
MOZ066>068-077>081-088>096-101>105-031100-
...SOUTHWEST MISSOURI...

CITY           SKY/WX    TMP DP  RH WIND       PRES   REMARKS
SPRINGFIELD    CLEAR     69  63  81 S5        29.94R
JOPLIN         CLEAR     67  65  93 CALM      29.94F

$$
MOZ032>034-039>042-045>050-055>058-069>072-031100-
...CENTRAL MISSOURI...

CITY           SKY/WX    TMP DP  RH WIND       PRES   REMARKS
COLUMBIA       CLOUDY    72  65  78 E7        29.87R
JEFFERSON CITY CLOUDY    81  63  54 VRB3      29.86R
ROLLA          MOCLDY    67  65  93 SW5       29.90R
SEDALIA        MOCLDY    77  65  66 W12G20    29.86F
WHITEMAN AFB   PTCLDY    71  67  84 W7        29.88F
WARRENSBURG    PTCLDY    70  64  83 CALM      29.90F
OSAGE BEACH    PTCLDY    73  64  73 W5        29.89F

$$
MOZ051-052-059>065-031100-
...EAST CENTRAL MISSOURI...

CITY           SKY/WX    TMP DP  RH WIND       PRES   REMARKS
ST LOUIS INTL  CLOUDY    79  66  64 W8        29.86R
SPIRIT OF STL  CLOUDY    74  68  81 W6        29.84R
ST CHARLES     CLOUDY    77  67  71 NW8       29.85R

$$
MOZ072>076-082>087-097>100-106>115-031100-
...SOUTH CENTRAL AND SOUTHEAST MISSOURI...

CITY           SKY/WX    TMP DP  RH WIND       PRES   REMARKS
CAPE GIRARDEAU CLEAR     74  70  87 CALM      29.87S
FARMINGTON     MOCLDY    72  66  83 W6        29.93S
POPLAR BLUFF   PTCLDY    73  70  90 SW5       29.87F
WEST PLAINS    CLEAR     70  64  81 MISG      29.95S

$$


USA.gov is the U.S. government's official web portal to all federal, state and local government web resources and services.